Location: Hurecourt
(47.9030°N, 6.0653°E)
Time: 01:14:54
(UTC+00:00)

Cosmos 614 Rocket - Visible Passes

Search period start: 24 October 2020 00:00
Search period end: 03 November 2020 00:00
Orbit: 733 x 763 km, 74.1° (Epoch: 23 October)

Date Brightness Start Highest point End Pass type
(mag) Time Alt. Az. Time Alt. Az. Time Alt. Az.
24 Oct 5.5 05:09:02 10° S 05:13:50 41° ESE 05:18:38 10° NE visible
25 Oct 6.6 04:27:13 10° SSE 04:31:09 23° E 04:35:05 10° NE visible
26 Oct 7.2 03:46:45 10° ESE 03:48:37 12° E 03:50:30 10° ENE visible
26 Oct 4.1 05:24:15 10° SSW 05:29:24 85° ESE 05:34:33 10° NNE visible
27 Oct 5.1 04:41:39 10° S 04:46:33 46° ESE 04:51:27 10° NNE visible
28 Oct 6.2 03:59:41 10° SSE 04:03:51 25° E 04:08:01 10° NE visible
28 Oct 4.2 05:40:14 10° SW 05:45:12 48° WNW 05:50:10 10° NNE visible
29 Oct 6.9 03:18:47 10° ESE 03:21:18 14° E 03:23:48 10° ENE visible
29 Oct 3.9 04:57:01 10° SSW 05:02:10 86° WNW 05:07:19 10° NNE visible
30 Oct 4.7 04:14:19 10° S 04:19:17 52° ESE 04:24:15 10° NNE visible
31 Oct 5.8 03:32:11 10° SSE 03:36:33 29° E 03:40:54 10° NE visible
31 Oct 4.3 05:13:06 10° SW 05:18:00 43° WNW 05:22:52 10° NNE visible
01 Nov 6.6 02:50:59 10° SE 02:53:57 16° E 02:56:56 10° ENE visible
01 Nov 3.8 04:29:48 10° SSW 04:34:56 76° WNW 04:40:04 10° NNE visible
02 Nov 4.4 03:49:12 26° S 03:52:01 60° ESE 03:57:03 10° NNE visible
02 Nov 5.1 05:29:59 10° WSW 05:34:03 23° NW 05:38:08 10° N visible
